Revelstoke, Canada 16 day weather forecast

Slopes altitude range 510 m - 2225m

Number of lifts: 4 Pistes: -1km

In some cases the lift and piste totals shown are for the ski domain (e.g. Three Valleys) rather than individual resort (e.g. Courchevel)

Overview

The 16 day weather forecast is fully updated 4 times every day.

    • Tue 24 APR 2018
    • Tue 24
    • -4C -3C
    • Wed 25 APR 2018
    • Wed 25
    • 1C 2C
    • Thu 26 APR 2018
    • Thu 26
    • 0C 2C
    • Fri 27 APR 2018
    • Fri 27
    • 4C 5C
    • Sat 28 APR 2018
    • Sat 28
    • 7C 9C
    • Sun 29 APR 2018
    • Sun 29
    • 4C 6C
    • Mon 30 APR 2018
    • Mon 30
    • -1C 2C
    • Tue 01 MAY 2018
    • Tue 01
    • -1C 2C
    • Wed 02 MAY 2018
    • Wed 02
    • 1C 3C
    • Thu 03 MAY 2018
    • Thu 03
    • -3C -2C
    • Fri 04 MAY 2018
    • Fri 04
    • -1C 11C
    • Sat 05 MAY 2018
    • Sat 05
    • 3C 16C
    • Sun 06 MAY 2018
    • Sun 06
    • 6C 19C
    • Mon 07 MAY 2018
    • Mon 07
    • 8C 18C
    • Tue 08 MAY 2018
    • Tue 08
    • -2C 6C
    • Wed 09 MAY 2018
    • Wed 09
    • -1C 11C

Date:

Time Type 0°C level Temp Chill Snow Cloud Speed Gust Dir Press
3:00 1311m -1°C -1_3 0cm 0% 3mph 3mph 1031mB
6:00 1001m -3°C -3_3 0cm 0% 3mph 4mph 1034mB
9:00 892m -4°C -4_4 0cm 16% 4mph 4mph 1034mB
12:00 835m -3°C -3_4 0cm 28% 4mph 4mph 1034mB
15:00 2858m 1°C 1_3 0cm 58% 3mph 3mph 1030mB
18:00 2905m 6°C 6_3 0cm 60% 3mph 5mph 1025mB
21:00 3013m 6°C 6_4 0cm 50% 4mph 6mph 1023mB
0:00 2794m 6°C 6_3 0cm 37% 3mph 5mph 1020mB
3:00 2851m 3°C 3_4 0cm 91% 4mph 5mph 1021mB
6:00 2852m 2°C 2_3 0cm 85% 3mph 4mph 1022mB
9:00 2766m 1°C 1_3 0cm 95% 3mph 4mph 1021mB
12:00 2625m 2°C 2_0 0cm 97% 0mph 0mph 1022mB
15:00 2468m 4°C 4_2 0cm 2% 2mph 2mph 1021mB
18:00 2337m 9°C 9_3 0cm 1% 3mph 5mph 1020mB
21:00 2424m 9°C 9_2 0cm 1% 2mph 4mph 1020mB
0:00 2513m 9°C 9_1 0cm 9% 1mph 3mph 1020mB
3:00 2657m 3°C 3_1 0cm 52% 1mph 1mph 1022mB
6:00 3219m 1°C 1_3 0cm 50% 3mph 4mph 1025mB
9:00 3308m 1°C 1_3 0cm 52% 3mph 4mph 1025mB
12:00 3390m 2°C 2_3 0cm 41% 3mph 3mph 1025mB
15:00 3487m 6°C 6_3 0cm 47% 3mph 3mph 1023mB
18:00 3537m 12°C 12_3 0cm 53% 3mph 4mph 1020mB
21:00 3577m 12°C 12_3 0cm 55% 3mph 3mph 1017mB
0:00 3629m 12°C 12_3 0cm 53% 3mph 4mph 1015mB
3:00 3627m 7°C 7_3 0cm 18% 3mph 4mph 1016mB
6:00 3551m 5°C 5_4 0cm 14% 4mph 5mph 1017mB
9:00 3589m 4°C 4_4 0cm 44% 4mph 5mph 1016mB
12:00 3593m 5°C 5_4 0cm 47% 4mph 5mph 1016mB
15:00 3641m 9°C 9_3 0cm 39% 3mph 4mph 1014mB
18:00 3621m 17°C 17_2 0cm 33% 2mph 2mph 1010mB
21:00 3630m 17°C 17_2 0cm 43% 2mph 2mph 1007mB
0:00 3488m 17°C 17_3 0cm 48% 3mph 3mph 1004mB
3:00 3499m 12°C 12_3 0cm 68% 3mph 4mph 1004mB
6:00 3470m 9°C 9_4 0cm 74% 4mph 5mph 1004mB
9:00 3397m 8°C 8_4 0cm 62% 4mph 5mph 1003mB
12:00 3342m 9°C 9_4 0cm 71% 4mph 5mph 1001mB
15:00 3272m 10°C 10_1 0cm 100% 1mph 2mph 999mB
18:00 3140m 15°C 15_4 0cm 100% 4mph 4mph 997mB
21:00 2947m 15°C 15_4 0cm 96% 4mph 2mph 995mB
0:00 2974m 15°C 15_4 0cm 91% 4mph 4mph 995mB
3:00 2835m 9°C 9_6 0cm 98% 6mph 9mph 996mB
6:00 2681m 6°C 6_5 0cm 99% 5mph 8mph 997mB
9:00 2469m 5°C 5_5 0cm 100% 5mph 8mph 997mB
12:00 2191m 6°C 6_4 0cm 100% 4mph 7mph 998mB
15:00 1970m 4°C 4_3 0cm 100% 3mph 5mph 999mB
18:00 1876m 4°C 4_4 0cm 100% 4mph 6mph 1000mB
21:00 1940m 4°C 4_4 0cm 100% 4mph 6mph 1001mB
0:00 1983m 4°C 4_4 0cm 100% 4mph 6mph 1003mB
3:00 2012m 3°C 3_3 0cm 100% 3mph 4mph 1006mB
6:00 2024m 2°C 2_3 0cm 99% 3mph 3mph 1010mB
9:00 1947m 1°C 1_2 0cm 74% 2mph 3mph 1011mB
12:00 1338m 2°C 2_2 0cm 51% 2mph 3mph 1012mB
15:00 1678m 3°C 3_3 0cm 63% 3mph 4mph 1012mB
18:00 1837m 6°C 6_4 0cm 68% 4mph 5mph 1009mB
21:00 2045m 6°C 6_4 0cm 95% 4mph 5mph 1007mB
0:00 2197m 6°C 6_4 0cm 91% 4mph 7mph 1007mB
3:00 2183m 4°C 4_2 0cm 97% 2mph 3mph 1010mB
6:00 2155m 2°C 2_3 0cm 81% 3mph 4mph 1014mB
9:00 2063m 1°C 1_4 0cm 72% 4mph 5mph 1016mB
12:00 1385m 2°C 2_3 0cm 45% 3mph 3mph 1019mB
15:00 1628m 3°C 3_3 0cm 55% 3mph 3mph 1019mB
18:00 1979m 9°C 9_3 0cm 38% 3mph 4mph 1016mB
21:00 2225m 8°C 8_4 0cm 57% 4mph 5mph 1014mB
0:00 2372m 8°C 8_4 0cm 50% 4mph 5mph 1012mB
3:00 2389m 6°C 6_2 0cm 1% 2mph 3mph 1014mB
6:00 2497m 3°C 3_3 0cm 2% 3mph 4mph 1016mB
9:00 2447m 2°C 2_3 0cm 41% 3mph 4mph 1015mB
12:00 2299m 3°C 3_2 0cm 39% 2mph 3mph 1014mB
15:00 2174m 6°C 6_5 0cm 41% 5mph 7mph 1011mB
18:00 2172m 9°C 9_9 0cm 22% 9mph 14mph 1009mB
21:00 1928m 6°C 6_9 7cm 54% 9mph 20mph 1011mB
0:00 1804m 4°C 4_9 8cm 54% 9mph 26mph 1015mB
3:00 1720m 0°C 0_3 0cm 8% 3mph 4mph 1020mB
6:00 1098m -2°C -2_3 0cm 5% 3mph 3mph 1025mB
9:00 1020m -3°C -3_2 0cm 0% 2mph 3mph 1026mB
12:00 970m -2°C -2_2 0cm 0% 2mph 2mph 1028mB
15:00 1536m 2°C 2_3 0cm 0% 3mph 4mph 1027mB
18:00 1786m 6°C 6_4 0cm 3% 4mph 6mph 1025mB
Morning 0.458333mm 0 2290m 1°C 1_2 0cm 40% 2mph 3mph 1025mB
Afternoon 0.197917mm 0 2368m 11°C 11_5 0cm 7% 5mph 6mph 1022mB
Morning 0.00520833mm 0 2907m 6°C 6_2 0cm 23% 2mph 2mph 1022mB
Afternoon 0.0572917mm 0 3008m 16°C 16_6 0cm 4% 6mph 7mph 1020mB
Morning 0.817708mm 0 3334m 9°C 9_3 0cm 34% 3mph 4mph 1020mB
Afternoon 0.489583mm 0 3404m 19°C 19_6 0cm 79% 6mph 9mph 1018mB
Morning 1.14062mm 0.0625 3631m 12°C 12_5 0cm 3% 5mph 5mph 1016mB
Afternoon 0.28125mm 0.3125 3322m 18°C 18_11 0cm 19% 11mph 17mph 1011mB
Morning 0.776042mm 1.1875 2138m 6°C 6_10 0cm 78% 10mph 14mph 1014mB
Afternoon 0.385417mm 0.0625 1713m 6°C 6_7 3cm 68% 7mph 8mph 1021mB
Morning 0.135417mm 0.1875 1956m 0°C 0_3 0cm 43% 3mph 3mph 1020mB
Afternoon 0.385417mm 0 2367m 11°C 11_7 0cm 55% 7mph 11mph 1005mB

16 day outlook at a glance

Forecast issued: 24/04/2018 05:28:45

Chat

Your comments and questions. In a resort? Let us know what it's like!


Characters left 250

For terms and conditions see Readers Comments on the Cookie and privacy policy page.